CAPE
nan nan nan nan nan nan nan nan nan nan nan nan nan nan nan nan nan nan nan nan nan nan nan nan nan nan nan nan nan nan nan nan nan nan nan nan nan nan nan nan nan nan nan nan nan nan nan nan nan 0 0 1 2 2 3 4 4 5 6 8 8 10 12 11 11 11 11 12 12 12 12 10 8 8 6 8 9 9 12 15 15 19 24 29 29 40
nan nan nan nan nan nan nan nan nan nan nan nan nan nan nan nan nan nan nan nan nan nan nan nan nan nan nan nan nan nan nan nan nan nan nan nan nan nan nan nan nan nan nan nan nan nan nan 0 0 0 0 1 1 1 1 2 2 3 4 6 6 9 11 11 11 12 11 12 11 11 10 8 7 7 8 10 15 15 17 22 22 26 31 40 40 51
nan nan nan nan nan nan nan nan nan nan nan nan nan nan nan nan nan nan nan nan nan nan nan nan nan nan nan nan nan nan nan nan nan nan nan nan nan nan nan nan nan nan nan nan nan nan nan nan nan 0 0 0 0 0 0 0 0 1 3 4 4 6 9 10 10 11 10 9 8 8 8 8 8 8 13 16 21 21 26 29 29 32 37 49 49 63
nan nan nan nan nan nan nan nan nan nan nan nan nan nan nan nan nan nan nan nan nan nan nan nan nan nan nan nan nan nan nan nan nan nan nan nan nan nan nan nan nan nan nan nan nan nan nan nan nan nan nan nan nan nan nan 0 0 1 2 3 3 5 7 7 7 8 8 8 8 8 8 10 13 13 16 22 27 27 29 34 34 37 45 56 56 70
nan nan nan nan nan nan nan nan nan nan nan nan nan nan nan nan nan nan nan nan nan nan nan nan nan nan nan nan nan nan nan nan nan nan nan nan nan nan nan nan nan nan nan nan nan nan nan nan nan nan nan nan nan nan nan 0 0 1 2 3 3 5 6 7 7 7 8 8 9 9 11 14 17 17 21 25 30 30 35 38 38 42 50 64 64 81
nan nan nan nan nan nan nan nan nan nan nan nan nan nan nan nan nan nan nan nan nan nan nan nan nan nan nan nan nan nan nan nan nan nan nan nan nan nan nan nan nan nan nan nan nan nan nan nan nan nan nan nan nan nan nan 0 0 1 2 3 3 4 5 6 6 7 8 10 12 12 14 16 19 19 23 27 33 33 37 44 44 48 54 68 68 87
nan nan nan nan nan nan nan nan nan nan nan nan nan nan nan nan nan nan nan nan nan nan nan nan nan nan nan nan nan nan nan nan nan nan nan nan nan nan nan nan nan nan nan nan nan nan nan nan nan nan nan nan 0 0 0 1 1 2 2 3 3 4 5 5 5 8 10 12 13 13 15 17 19 19 22 26 33 33 39 49 49 54 58 68 68 88
nan nan nan nan nan nan nan nan nan nan nan nan nan nan nan nan nan nan nan nan nan nan nan nan nan nan nan nan nan nan nan nan nan nan nan nan nan nan nan nan nan nan nan nan nan nan nan nan nan nan nan 0 1 1 3 2 2 2 1 1 1 1 3 5 5 9 12 15 16 16 18 18 20 20 22 22 26 26 36 50 50 64 72 76 76 87
nan nan nan nan nan nan nan nan nan nan nan nan nan nan nan nan nan nan nan nan nan nan nan nan nan nan nan nan nan nan nan nan nan nan nan nan nan nan nan nan nan nan nan nan nan nan nan nan nan nan nan 0 2 2 3 1 1 0 0 0 0 1 3 7 7 10 14 16 17 17 18 20 19 19 22 25 29 29 34 41 41 57 70 79 79 89
nan nan nan nan nan nan nan nan nan nan nan nan nan nan nan nan nan nan nan nan nan nan nan nan nan nan nan nan nan nan nan nan nan nan nan nan nan nan nan nan nan nan nan nan nan nan nan nan nan nan nan 0 1 1 1 0 0 nan nan 0 0 1 4 8 8 12 14 16 18 18 19 21 22 22 24 26 27 27 30 34 34 44 56 74 74 87
nan nan nan nan nan nan nan nan nan nan nan nan nan nan nan nan nan nan nan nan nan nan nan nan nan nan nan nan nan nan nan nan nan nan nan nan nan nan nan nan nan nan nan nan nan nan nan nan nan nan nan 0 0 0 0 nan nan nan nan 0 0 2 5 8 8 12 14 16 20 20 21 23 24 24 26 26 27 27 27 29 29 33 42 57 57 74
nan nan nan nan nan nan nan nan nan nan nan nan nan nan nan nan nan nan nan nan nan nan nan nan nan nan nan nan nan nan nan nan nan nan nan nan nan nan nan nan nan nan nan nan nan nan nan nan nan nan nan nan nan nan nan nan nan nan nan 0 0 2 4 7 7 9 14 17 19 19 23 24 26 26 25 26 26 26 26 28 28 29 34 46 46 62
nan nan nan nan nan nan nan nan nan nan nan nan nan nan nan nan nan nan nan nan nan nan nan nan nan nan nan nan nan nan nan nan nan nan nan nan nan nan nan nan nan nan nan nan nan nan nan nan nan nan nan nan nan nan nan nan nan nan 0 1 1 2 3 5 5 10 13 17 22 22 23 24 25 25 27 27 27 27 27 28 28 29 34 40 40 55
nan nan nan nan nan nan nan nan nan nan nan nan nan nan nan nan nan nan nan nan nan nan nan nan nan nan nan nan nan nan nan nan nan nan nan nan nan nan nan nan nan nan nan nan nan nan nan nan nan nan nan nan nan nan nan nan nan 0 0 0 0 1 2 5 5 10 14 18 20 20 20 22 24 24 26 27 30 30 30 31 31 32 36 40 40 53
0 0 0 nan nan nan nan nan nan nan nan nan nan nan nan nan nan nan nan nan nan nan nan nan nan nan nan nan nan nan nan nan nan nan nan nan nan nan nan nan nan nan nan nan nan nan nan nan nan nan nan nan nan nan nan nan nan 0 nan 0 0 0 2 5 5 9 14 17 18 18 18 19 21 21 21 25 27 27 27 29 29 31 34 42 42 54
1 1 0 nan nan nan nan nan nan nan nan nan nan nan nan nan nan nan nan nan nan 1 nan nan nan nan nan nan nan nan nan nan nan nan nan nan nan nan nan nan nan nan nan nan nan nan nan nan nan nan nan nan nan nan nan nan nan 0 nan nan nan 0 2 5 5 9 11 15 15 15 16 16 17 17 19 22 23 23 23 24 24 28 32 37 37 48
2 1 0 nan nan nan nan nan nan nan nan nan nan nan nan nan 0 0 1 2 2 1 1 0 0 nan nan nan nan nan nan nan nan nan nan nan nan nan nan nan nan nan nan nan nan nan nan nan nan nan nan nan nan nan nan nan nan nan 0 0 0 1 2 5 5 6 9 11 11 11 13 14 16 16 17 18 17 17 18 18 18 24 30 38 38 45
2 1 0 nan nan nan nan nan nan nan nan nan nan nan 0 0 1 1 2 2 2 2 1 0 0 0 nan nan nan nan nan nan nan nan nan nan nan nan nan nan nan nan nan nan nan nan nan nan nan nan nan nan nan nan nan nan nan 0 0 1 1 1 1 2 2 4 5 7 9 9 11 12 12 12 13 12 12 12 13 15 15 23 34 44 44 51
1 0 nan nan nan nan nan nan nan nan nan nan 1 1 2 3 2 2 2 2 2 1 1 1 1 nan nan nan nan nan nan nan nan nan nan nan nan nan nan nan nan nan nan nan nan nan nan nan nan nan nan nan nan nan nan nan nan 0 1 1 1 1 0 0 0 2 3 6 8 8 10 10 9 9 9 9 9 9 11 16 16 28 40 50 50 54
1 0 nan nan nan nan nan nan nan nan 1 4 5 5 4 4 3 3 1 1 1 1 1 nan nan nan nan nan nan nan nan nan nan nan nan nan nan nan nan nan nan nan nan nan nan nan nan nan nan nan nan nan nan nan nan 0 0 1 2 1 1 0 0 0 0 0 2 4 6 6 7 8 9 9 8 9 10 10 12 19 19 31 44 49 49 52
1 nan nan nan nan nan nan nan 2 2 5 8 4 4 3 2 2 2 1 1 1 1 0 0 0 nan nan nan nan nan nan nan nan nan nan nan nan nan nan nan nan nan nan nan nan nan nan nan nan nan nan nan nan nan nan 0 0 1 1 1 1 1 0 0 0 0 1 2 5 5 5 7 8 8 9 10 12 12 14 23 23 31 41 49 49 56
1 nan nan nan nan nan 2 4 8 8 6 7 2 2 1 1 1 1 1 1 1 0 0 0 0 nan nan nan nan nan nan nan nan nan nan nan nan nan nan nan nan nan nan nan nan nan nan nan nan nan nan nan nan nan 0 0 0 0 1 1 1 2 2 1 1 1 2 3 4 4 6 7 7 7 8 9 12 12 15 22 22 31 44 51 51 62
1 nan 0 1 1 5 8 7 3 3 4 3 3 3 2 1 2 2 1 0 0 1 1 0 0 0 nan nan nan nan nan nan nan nan nan nan nan nan nan nan nan nan nan nan nan nan nan nan nan nan nan nan nan nan 0 0 0 1 2 3 3 3 2 2 2 3 4 5 6 6 7 8 7 7 8 10 14 14 17 24 24 35 44 55 55 61
nan 2 7 11 11 10 7 2 0 0 2 3 1 1 2 0 0 0 0 0 0 1 1 1 1 0 nan 0 nan nan nan nan nan nan nan nan nan nan nan nan nan nan nan nan nan nan nan nan nan nan nan nan nan nan 0 0 0 2 2 3 3 4 4 5 5 5 5 7 8 8 8 9 11 11 14 17 20 20 26 30 30 35 43 51 51 57
nan 2 5 6 6 6 4 1 2 2 1 0 nan nan nan 0 3 3 2 2 2 2 1 1 1 0 nan nan nan nan nan nan nan nan nan nan nan nan nan nan nan nan nan nan nan nan nan nan nan nan nan nan nan nan 0 0 0 2 3 5 5 6 6 6 6 6 6 6 7 7 9 11 15 15 18 24 28 28 35 37 37 41 46 50 50 52
nan 1 2 5 5 11 13 14 13 13 9 3 1 1 1 2 2 2 1 1 1 1 0 0 0 0 nan nan nan nan nan nan nan nan nan nan nan nan nan nan nan nan nan nan nan nan nan nan nan nan nan nan nan nan nan 1 1 3 4 6 6 6 6 5 5 4 5 5 7 7 11 16 19 19 25 30 36 36 40 44 44 49 57 60 60 64
2 5 9 10 10 12 13 14 17 17 23 17 5 5 2 3 1 1 1 0 0 0 1 0 0 0 nan nan nan nan nan nan nan nan nan nan nan nan nan nan nan nan nan nan nan nan nan nan nan nan nan nan nan nan nan 1 1 3 4 4 4 4 3 3 3 4 6 8 11 11 15 20 25 25 32 39 44 44 51 54 54 60 65 70 70 67
5 7 8 9 9 10 14 16 19 19 20 20 21 21 11 2 0 0 1 0 0 0 0 nan nan nan nan nan nan nan nan nan nan nan nan nan nan nan nan nan nan nan nan nan nan nan nan nan nan nan nan nan nan nan nan 2 2 2 1 1 1 1 2 4 4 6 8 11 15 15 19 26 33 33 40 47 52 52 59 62 62 68 76 57 57 29
10 11 10 12 12 14 16 18 15 15 14 14 16 16 10 0 0 0 0 0 0 0 nan nan nan nan nan nan nan nan nan nan nan nan nan nan nan nan nan nan nan nan nan nan nan nan nan nan nan nan nan nan nan nan nan nan nan nan 0 1 1 2 3 5 5 7 11 15 18 18 24 30 39 39 45 48 54 54 59 66 66 75 67 48 48 28
5 7 9 9 9 9 7 2 3 3 5 6 9 9 8 0 nan nan nan nan nan 0 0 nan nan nan nan nan nan nan nan nan nan nan nan nan nan nan nan nan nan nan nan nan nan nan nan nan nan nan nan nan nan nan nan nan nan nan nan 1 1 2 3 5 5 6 11 15 19 19 26 33 39 39 43 48 52 52 59 64 64 59 37 29 29 28
0 0 nan nan nan nan nan nan nan nan 0 4 6 6 5 nan nan nan nan 0 0 nan nan nan nan nan 0 nan nan nan nan nan nan nan nan nan nan nan nan nan nan nan nan nan nan nan nan nan nan nan nan nan nan nan nan nan nan nan nan nan nan nan 1 3 3 6 9 14 18 18 24 31 35 35 41 44 50 50 55 62 62 57 29 28 28 31
nan nan nan nan nan nan nan nan nan nan nan nan nan nan nan nan nan nan nan nan nan nan nan 0 0 0 0 nan nan nan nan nan nan nan nan nan nan nan nan nan nan nan nan nan nan nan nan nan nan nan nan nan nan nan nan nan nan nan nan nan nan nan nan 2 2 2 2 8 15 15 18 22 29 29 33 35 40 40 49 54 54 54 30 21 21 32
nan nan nan nan nan nan nan nan nan nan nan nan nan nan nan nan 1 1 0 0 0 0 0 nan nan 0 0 nan nan nan nan nan nan nan 0 nan nan nan nan nan nan nan nan nan nan nan nan nan nan nan nan nan nan nan nan nan nan nan nan nan nan nan nan nan nan nan nan 1 4 4 15 20 26 26 30 35 37 37 43 49 49 54 53 21 21 29
nan nan nan nan nan nan nan nan nan nan 0 nan 0 0 0 0 0 0 1 0 0 0 0 nan nan nan nan nan nan nan nan nan nan nan 1 nan nan nan nan nan nan nan nan nan nan nan nan nan nan nan nan nan nan nan nan nan nan nan nan nan nan nan nan nan nan nan nan nan nan nan nan 0 18 18 21 28 33 33 36 44 44 54 60 46 46 39
nan nan nan nan nan nan 0 0 1 1 0 0 1 1 0 0 0 0 0 0 0 0 0 0 0 nan nan nan nan nan nan nan nan nan 1 nan nan nan nan nan nan nan nan nan nan nan nan nan nan 0 nan nan nan nan nan nan nan nan nan nan nan nan nan nan nan nan nan nan nan nan nan nan 0 0 5 18 28 28 38 43 43 49 56 68 68 58
nan nan nan nan nan 0 0 0 0 0 0 nan 0 0 0 0 0 0 0 1 1 1 3 1 1 0 nan nan nan nan nan nan nan nan 2 nan nan nan nan nan nan nan nan nan nan nan nan nan nan 1 1 nan nan nan nan nan nan nan nan nan nan nan nan nan nan nan nan nan nan nan nan nan 0 0 1 23 33 33 37 38 38 42 49 58 58 61
nan nan nan nan nan 0 0 0 0 0 0 0 0 0 0 0 1 1 0 1 1 2 4 7 7 5 6 0 nan nan nan nan nan nan nan nan nan nan nan nan nan nan nan nan nan nan nan nan nan nan nan nan nan nan nan nan nan nan nan nan nan nan nan nan nan nan nan nan nan nan nan nan 1 1 2 22 23 23 28 35 35 35 41 47 47 52
0 0 0 nan nan nan nan 0 0 0 0 nan 0 0 0 0 1 1 0 1 1 2 1 1 1 1 9 10 nan nan nan nan nan nan nan nan nan nan nan nan nan nan nan nan nan nan nan nan nan nan nan nan nan nan nan nan nan nan nan nan nan nan nan nan nan nan nan nan 1 1 2 2 nan nan nan 1 0 0 1 1 1 14 29 34 34 43
0 0 0 0 0 nan nan 0 0 0 nan nan nan nan nan 0 1 1 0 0 0 0 nan 0 0 nan nan nan 0 0 nan nan nan nan nan nan nan nan nan nan nan nan nan nan nan nan nan nan nan nan nan nan nan nan nan nan nan nan nan nan nan nan nan nan nan nan nan nan 0 0 1 nan nan nan nan nan nan nan nan nan nan 3 6 2 2 18
nan 0 0 0 0 0 0 0 nan nan nan nan nan nan nan 0 0 0 nan 0 0 0 0 0 0 nan nan 0 0 0 nan nan nan nan nan nan nan nan nan nan nan nan nan nan nan nan nan nan nan nan nan nan nan nan nan nan nan nan nan nan nan nan nan nan nan nan nan nan nan nan nan nan nan nan nan nan nan nan nan nan nan nan 3 0 0 nan
1 1 1 nan nan 0 0 0 nan nan nan 0 0 0 0 0 0 0 0 1 1 1 1 0 0 0 0 nan nan nan nan nan nan nan nan nan nan nan nan nan nan nan nan nan nan nan nan nan nan nan nan nan nan nan nan nan nan 1 4 nan nan nan nan nan nan nan nan nan nan nan nan nan 1 1 nan 0 nan nan nan nan nan nan 4 1 1 1
2 1 0 nan nan 0 0 0 1 1 0 1 1 1 1 0 0 0 1 1 1 0 0 1 1 1 2 nan nan nan nan nan nan nan nan nan nan nan nan nan nan nan nan nan nan nan nan nan nan nan nan nan nan nan nan nan nan nan 0 nan nan nan nan nan nan nan nan nan nan nan 2 nan nan nan nan nan nan nan 0 nan nan 10 14 5 5 1
1 1 0 0 0 1 1 2 2 2 2 2 1 1 0 0 1 1 3 1 1 1 2 2 2 1 1 1 nan nan nan nan nan nan nan nan nan nan nan nan nan nan nan nan nan nan nan nan nan nan nan nan nan nan nan nan nan nan nan nan nan nan nan nan nan nan nan nan nan nan nan nan nan nan nan nan nan nan nan 7 7 22 18 1 1 nan
1 1 0 1 1 1 1 2 2 2 2 1 1 1 0 nan 1 1 2 1 1 2 2 1 1 2 1 1 nan nan nan nan nan nan nan nan nan nan nan nan nan nan nan nan nan nan nan nan nan nan nan nan nan nan nan nan nan nan nan nan nan nan nan nan nan nan nan nan nan nan nan nan nan nan nan nan nan nan 0 1 1 0 3 1 1 nan
1 1 1 2 2 2 2 2 2 2 1 1 0 0 0 nan 2 2 1 0 0 2 1 1 1 2 1 0 nan nan nan nan nan nan nan nan 7 7 0 nan nan nan nan nan nan nan nan nan nan nan nan nan nan nan nan nan nan nan nan nan nan nan nan nan nan nan nan nan nan nan nan nan nan nan nan nan 0 0 0 nan nan nan nan nan nan nan
2 1 1 2 2 2 3 2 2 2 2 1 1 1 0 0 0 0 1 0 0 1 0 2 2 2 2 1 0 0 0 nan nan nan nan nan nan nan nan nan nan nan nan nan nan nan nan nan nan nan nan nan nan nan nan nan nan nan nan nan nan nan nan nan nan nan nan nan nan nan nan nan nan nan nan nan nan nan nan nan nan nan nan nan nan nan
1 1 1 2 2 2 2 2 2 2 2 2 1 1 0 0 nan nan 0 1 1 0 2 3 3 2 1 1 0 0 1 nan nan nan nan nan nan nan nan nan nan nan nan nan nan nan nan nan nan nan nan nan nan nan nan nan nan nan nan nan nan nan nan nan nan nan nan nan nan nan nan nan nan nan nan nan nan nan nan nan nan nan nan nan nan nan
2 2 1 2 2 2 2 3 2 2 1 1 nan nan 0 nan nan nan 0 0 0 1 5 1 1 1 1 1 1 1 2 1 1 1 nan nan nan nan nan nan nan nan nan nan nan nan nan nan nan nan nan nan nan nan nan nan nan nan nan nan nan nan nan nan nan nan nan nan nan nan nan nan nan nan nan 0 nan nan nan nan nan nan nan nan nan nan
4 3 3 3 3 2 1 2 1 1 1 0 0 0 0 2 13 13 1 0 0 0 1 2 2 2 3 2 3 3 3 2 1 1 0 nan nan nan nan nan nan nan nan nan nan nan nan nan nan nan nan nan nan nan nan nan nan nan nan nan nan nan nan nan nan nan nan nan nan nan nan nan nan nan nan nan nan nan nan nan nan nan nan nan nan nan
4 3 4 3 3 2 2 2 1 1 0 nan 0 0 nan 0 0 0 0 1 1 3 4 2 2 3 2 0 1 1 1 1 1 1 0 0 0 0 nan nan nan nan nan nan nan nan nan nan nan 0 1 nan nan nan nan nan nan nan nan nan nan nan nan nan nan nan nan nan nan nan nan nan 0 0 nan nan nan nan nan nan nan nan nan nan nan nan
4 3 4 4 4 3 2 1 0 0 nan 0 0 0 nan nan 0 0 0 2 2 3 2 2 2 1 1 1 0 0 1 2 1 1 1 1 0 0 1 0 0 0 0 nan nan nan nan nan nan nan 4 17 4 4 nan nan nan nan nan nan nan nan nan nan nan nan nan nan nan nan nan nan nan nan nan nan nan nan nan nan nan nan nan nan nan nan
CIN
nan nan nan nan nan nan nan nan nan nan nan nan nan nan nan nan nan nan nan nan nan nan nan nan nan nan nan nan nan nan nan nan nan nan nan nan nan nan nan nan nan nan nan nan nan nan nan nan nan -0 -0 -0 -0 -0 -0 -0 -0 -0 -0 -0 -0 -0 -0 -0 -0 -0 -0 -0 -0 -0 -0 -0 -0 -0 -0 -0 -0 -0 -0 -0 -0 -0 -0 -0 -0 -0
nan nan nan nan nan nan nan nan nan nan nan nan nan nan nan nan nan nan nan nan nan nan nan nan nan nan nan nan nan nan nan nan nan nan nan nan nan nan nan nan nan nan nan nan nan nan nan -0 -0 -0 -0 -0 -0 -0 -0 -0 -0 -0 -0 -0 -0 -0 -0 -0 -0 -0 -0 -0 -0 -0 -0 -0 -0 -0 -0 -0 -0 -0 -0 -0 -0 -0 -0 -0 -0 -0
nan nan nan nan nan nan nan nan nan nan nan nan nan nan nan nan nan nan nan nan nan nan nan nan nan nan nan nan nan nan nan nan nan nan nan nan nan nan nan nan nan nan nan nan nan nan nan nan nan -0 -0 -0 -0 -0 -0 -0 -0 -0 -0 -0 -0 -0 -0 -0 -0 -0 -0 -0 -0 -0 -0 -0 -0 -0 -0 -0 -0 -0 -0 -0 -0 -0 -0 -0 -0 -0
nan nan nan nan nan nan nan nan nan nan nan nan nan nan nan nan nan nan nan nan nan nan nan nan nan nan nan nan nan nan nan nan nan nan nan nan nan nan nan nan nan nan nan nan nan nan nan nan nan nan nan nan nan nan nan -0 -0 -0 -0 -0 -0 -0 -0 -0 -0 -0 -0 -0 -0 -0 -0 -0 -0 -0 -0 -0 -0 -0 -0 -0 -0 -0 -0 -0 -0 -0
nan nan nan nan nan nan nan nan nan nan nan nan nan nan nan nan nan nan nan nan nan nan nan nan nan nan nan nan nan nan nan nan nan nan nan nan nan nan nan nan nan nan nan nan nan nan nan nan nan nan nan nan nan nan nan -0 -0 -0 -0 -0 -0 -0 -0 -0 -0 -0 -0 -0 -0 -0 -0 -0 -0 -0 -0 -0 -0 -0 -0 -0 -0 -0 -0 -0 -0 -0
nan nan nan nan nan nan nan nan nan nan nan nan nan nan nan nan nan nan nan nan nan nan nan nan nan nan nan nan nan nan nan nan nan nan nan nan nan nan nan nan nan nan nan nan nan nan nan nan nan nan nan nan nan nan nan -0 -0 -0 -0 -0 -0 -0 -0 -0 -0 -0 -0 -0 -0 -0 -0 -0 -0 -0 -0 -0 -0 -0 -0 -0 -0 -0 -0 -0 -0 -0
nan nan nan nan nan nan nan nan nan nan nan nan nan nan nan nan nan nan nan nan nan nan nan nan nan nan nan nan nan nan nan nan nan nan nan nan nan nan nan nan nan nan nan nan nan nan nan nan nan nan nan nan -0 -0 -0 -0 -0 -0 -0 -0 -0 -0 -0 -0 -0 -0 -0 -0 -0 -0 -0 -0 -0 -0 -0 -0 -0 -0 -0 -0 -0 -0 -0 -0 -0 -0
nan nan nan nan nan nan nan nan nan nan nan nan nan nan nan nan nan nan nan nan nan nan nan nan nan nan nan nan nan nan nan nan nan nan nan nan nan nan nan nan nan nan nan nan nan nan nan nan nan nan nan -0 -0 -0 -0 -0 -0 -0 -0 -0 -0 -0 -0 -0 -0 -0 -0 -0 -0 -0 -0 -0 -0 -0 -0 -0 -0 -0 -0 -0 -0 -0 -0 -0 -0 -0
nan nan nan nan nan nan nan nan nan nan nan nan nan nan nan nan nan nan nan nan nan nan nan nan nan nan nan nan nan nan nan nan nan nan nan nan nan nan nan nan nan nan nan nan nan nan nan nan nan nan nan -0 -0 -0 -0 -0 -0 -0 -0 -0 -0 -0 -0 -0 -0 -0 -0 -0 -0 -0 -0 -0 -0 -0 -0 -0 -0 -0 -0 -0 -0 -0 -0 -0 -0 -0
nan nan nan nan nan nan nan nan nan nan nan nan nan nan nan nan nan nan nan nan nan nan nan nan nan nan nan nan nan nan nan nan nan nan nan nan nan nan nan nan nan nan nan nan nan nan nan nan nan nan nan -0 -0 -0 -0 -0 -0 nan nan -0 -0 -0 -0 -0 -0 -0 -0 -0 -0 -0 -0 -0 -0 -0 -0 -0 -0 -0 -0 -0 -0 -0 -0 -0 -0 -0
nan nan nan nan nan nan nan nan nan nan nan nan nan nan nan nan nan nan nan nan nan nan nan nan nan nan nan nan nan nan nan nan nan nan nan nan nan nan nan nan nan nan nan nan nan nan nan nan nan nan nan -0 -0 -0 -0 nan nan nan nan -0 -0 -0 -0 -0 -0 -0 -0 -0 -0 -0 -0 -0 -0 -0 -0 -0 -0 -0 -0 -0 -0 -0 -0 -0 -0 -0
nan nan nan nan nan nan nan nan nan nan nan nan nan nan nan nan nan nan nan nan nan nan nan nan nan nan nan nan nan nan nan nan nan nan nan nan nan nan nan nan nan nan nan nan nan nan nan nan nan nan nan nan nan nan nan nan nan nan nan -0 -0 -0 -0 -0 -0 -0 -0 -0 -0 -0 -0 -0 -0 -0 -0 -0 -0 -0 -0 -0 -0 -0 -0 -0 -0 -0
nan nan nan nan nan nan nan nan nan nan nan nan nan nan nan nan nan nan nan nan nan nan nan nan nan nan nan nan nan nan nan nan nan nan nan nan nan nan nan nan nan nan nan nan nan nan nan nan nan nan nan nan nan nan nan nan nan nan -0 -0 -0 -0 -0 -0 -0 -0 -0 -0 -0 -0 -0 -0 -0 -0 -0 -0 -0 -0 -0 -0 -0 -0 -0 -0 -0 -0
nan nan nan nan nan nan nan nan nan nan nan nan nan nan nan nan nan nan nan nan nan nan nan nan nan nan nan nan nan nan nan nan nan nan nan nan nan nan nan nan nan nan nan nan nan nan nan nan nan nan nan nan nan nan nan nan nan -0 -0 -0 -0 -0 -0 -0 -0 -0 -0 -0 -0 -0 -0 -0 -0 -0 -0 -0 -0 -0 -0 -0 -0 -0 -0 -0 -0 -0
-0 -0 -1 nan nan nan nan nan nan nan nan nan nan nan nan nan nan nan nan nan nan nan nan nan nan nan nan nan nan nan nan nan nan nan nan nan nan nan nan nan nan nan nan nan nan nan nan nan nan nan nan nan nan nan nan nan nan -0 nan -0 -0 -0 -0 -0 -0 -0 -0 -0 -0 -0 -0 -0 -0 -0 -0 -0 -0 -0 -0 -0 -0 -0 -0 -0 -0 -0
-0 -0 -2 nan nan nan nan nan nan nan nan nan nan nan nan nan nan nan nan nan nan -0 nan nan nan nan nan nan nan nan nan nan nan nan nan nan nan nan nan nan nan nan nan nan nan nan nan nan nan nan nan nan nan nan nan nan nan -0 nan nan nan -0 -0 -0 -0 -0 -0 -0 -0 -0 -0 -0 -0 -0 -0 -0 -0 -0 -0 -0 -0 -0 -0 -0 -0 -0
-0 -0 -0 nan nan nan nan nan nan nan nan nan nan nan nan nan -2 -2 -0 -1 -1 -0 -0 -1 -1 nan nan nan nan nan nan nan nan nan nan nan nan nan nan nan nan nan nan nan nan nan nan nan nan nan nan nan nan nan nan nan nan nan -0 -0 -0 -0 -0 -0 -0 -0 -0 -0 -0 -0 -0 -0 -0 -0 -0 -0 -0 -0 -0 -0 -0 -0 -0 -0 -0 -0
-0 -0 -0 nan nan nan nan nan nan nan nan nan nan nan -0 -4 -3 -3 -1 -1 -1 -0 -0 -1 -1 -4 nan nan nan nan nan nan nan nan nan nan nan nan nan nan nan nan nan nan nan nan nan nan nan nan nan nan nan nan nan nan nan -0 -0 -0 -0 -0 -0 -0 -0 -0 -0 -0 -0 -0 -0 -0 -0 -0 -0 -0 -0 -0 -0 -0 -0 -0 -0 -0 -0 -0
-0 -0 nan nan nan nan nan nan nan nan nan nan -0 -0 -0 -2 -3 -3 -2 -2 -2 -1 -1 -1 -1 nan nan nan nan nan nan nan nan nan nan nan nan nan nan nan nan nan nan nan nan nan nan nan nan nan nan nan nan nan nan nan nan -0 -0 -0 -0 -0 -0 -0 -0 -0 -0 -0 -0 -0 -0 -0 -0 -0 -0 -0 -0 -0 -0 -0 -0 -0 -0 -0 -0 -0
-0 -0 nan nan nan nan nan nan nan nan -0 -0 -0 -0 -1 -2 -2 -2 -2 -2 -2 -2 -5 nan nan nan nan nan nan nan nan nan nan nan nan nan nan nan nan nan nan nan nan nan nan nan nan nan nan nan nan nan nan nan nan -0 -0 -0 -0 -0 -0 -0 -0 -0 -0 -0 -0 -0 -0 -0 -0 -0 -0 -0 -0 -0 -0 -0 -0 -0 -0 -0 -0 -0 -0 -0
-0 nan nan nan nan nan nan nan -0 -0 -1 -0 -2 -2 -2 -3 -2 -2 -2 -3 -3 -3 -5 -3 -3 nan nan nan nan nan nan nan nan nan nan nan nan nan nan nan nan nan nan nan nan nan nan nan nan nan nan nan nan nan nan -0 -0 -0 -0 -0 -0 -0 -0 -0 -0 -0 -0 -0 -0 -0 -0 -0 -0 -0 -0 -0 -0 -0 -0 -0 -0 -0 -0 -0 -0 -0
-0 nan nan nan nan nan -0 -0 -0 -0 -1 -4 -5 -5 -2 -3 -2 -2 -3 -3 -3 -3 -3 -2 -2 nan nan nan nan nan nan nan nan nan nan nan nan nan nan nan nan nan nan nan nan nan nan nan nan nan nan nan nan nan -0 -0 -0 -0 -0 -0 -0 -0 -0 -0 -0 -0 -0 -0 -0 -0 -0 -0 -0 -0 -0 -0 -0 -0 -0 -0 -0 -0 -0 -0 -0 -0
-1 nan -4 -6 -6 -5 -2 -1 -2 -2 -2 -6 -3 -3 -4 -4 -1 -1 -1 -3 -3 -2 -2 -5 -5 -7 nan nan nan nan nan nan nan nan nan nan nan nan nan nan nan nan nan nan nan nan nan nan nan nan nan nan nan nan -0 -0 -0 -0 -0 -0 -0 -0 -0 -0 -0 -0 -0 -0 -0 -0 -0 -0 -0 -0 -0 -0 -0 -0 -0 -0 -0 -0 -0 -0 -0 -0
nan -6 -5 -4 -4 -4 -4 -4 -5 -5 -2 -3 -8 -8 -16 -14 -9 -9 -7 -6 -6 -4 -5 -7 -7 -6 nan -6 nan nan nan nan nan nan nan nan nan nan nan nan nan nan nan nan nan nan nan nan nan nan nan nan nan nan -0 -0 -0 -0 -0 -0 -0 -0 -0 -0 -0 -0 -0 -0 -0 -0 -0 -0 -0 -0 -0 -0 -0 -0 -0 -0 -0 -0 -0 -0 -0 -0
nan -3 -1 -2 -2 -2 -2 -1 -0 -0 -5 -10 nan nan nan -14 -2 -2 -3 -6 -6 -4 -5 -2 -2 -3 nan nan nan nan nan nan nan nan nan nan nan nan nan nan nan nan nan nan nan nan nan nan nan nan nan nan nan nan -0 -0 -0 -0 -0 -0 -0 -0 -0 -0 -0 -0 -0 -0 -0 -0 -0 -0 -0 -0 -0 -0 -0 -0 -0 -0 -0 -0 -0 -0 -0 -0
nan -0 -1 -0 -0 -0 -0 -0 -0 -0 -0 -4 -7 -7 -5 -1 -2 -2 -4 -3 -3 -2 -2 -1 -1 -1 nan nan nan nan nan nan nan nan nan nan nan nan nan nan nan nan nan nan nan nan nan nan nan nan nan nan nan nan nan -0 -0 -0 -0 -0 -0 -0 -0 -0 -0 -0 -0 -0 -0 -0 -0 -0 -0 -0 -0 -0 -0 -0 -0 -0 -0 -0 -0 -0 -0 -0
-0 -0 -0 -0 -0 -0 -0 -0 -0 -0 -0 -0 -0 -0 -2 -2 -3 -3 -2 -0 -0 -0 -0 -0 -0 -2 nan nan nan nan nan nan nan nan nan nan nan nan nan nan nan nan nan nan nan nan nan nan nan nan nan nan nan nan nan -0 -0 -0 -0 -0 -0 -0 -0 -0 -0 -0 -0 -0 -0 -0 -0 -0 -0 -0 -0 -0 -0 -0 -0 -0 -0 -0 -0 -0 -0 -0
-0 -0 -0 -0 -0 -0 -0 -0 -0 -0 -0 -0 -0 -0 -0 -2 -2 -2 -0 -0 -0 -0 -0 nan nan nan nan nan nan nan nan nan nan nan nan nan nan nan nan nan nan nan nan nan nan nan nan nan nan nan nan nan nan nan nan -0 -0 -0 -0 -0 -0 -0 -0 -0 -0 -0 -0 -0 -0 -0 -0 -0 -0 -0 -0 -0 -0 -0 -0 -0 -0 -0 -0 -0 -0 -8
-0 -0 -0 -0 -0 -0 -0 -0 -0 -0 -0 -0 -0 -0 -0 -3 -0 -0 -0 -0 -0 -0 nan nan nan nan nan nan nan nan nan nan nan nan nan nan nan nan nan nan nan nan nan nan nan nan nan nan nan nan nan nan nan nan nan nan nan nan -0 -0 -0 -0 -0 -0 -0 -0 -0 -0 -0 -0 -0 -0 -0 -0 -0 -0 -0 -0 -0 -0 -0 -0 -0 -2 -2 -12
-0 -0 -0 -0 -0 -0 -0 -0 -0 -0 -0 -0 -0 -0 -0 -4 nan nan nan nan nan -1 -0 nan nan nan nan nan nan nan nan nan nan nan nan nan nan nan nan nan nan nan nan nan nan nan nan nan nan nan nan nan nan nan nan nan nan nan nan -0 -0 -0 -0 -0 -0 -0 -0 -0 -0 -0 -0 -0 -0 -0 -0 -0 -0 -0 -0 -0 -0 -0 -4 -11 -11 -13
-3 -5 nan nan nan nan nan nan nan nan -0 -0 -0 -0 -0 nan nan nan nan -4 -4 nan nan nan nan nan -1 nan nan nan nan nan nan nan nan nan nan nan nan nan nan nan nan nan nan nan nan nan nan nan nan nan nan nan nan nan nan nan nan nan nan nan -0 -0 -0 -0 -0 -0 -0 -0 -0 -0 -0 -0 -0 -0 -0 -0 -0 -0 -0 -0 -9 -13 -13 -11
nan nan nan nan nan nan nan nan nan nan nan nan nan nan nan nan nan nan nan nan nan nan nan -2 -2 -2 -2 nan nan nan nan nan nan nan nan nan nan nan nan nan nan nan nan nan nan nan nan nan nan nan nan nan nan nan nan nan nan nan nan nan nan nan nan -0 -0 -0 -0 -0 -0 -0 -0 -0 -0 -0 -0 -0 -0 -0 -0 -0 -0 -0 -6 -16 -16 -9
nan nan nan nan nan nan nan nan nan nan nan nan nan nan nan nan -1 -1 -7 -11 -11 -8 -5 nan nan -2 -2 nan nan nan nan nan nan nan -2 nan nan nan nan nan nan nan nan nan nan nan nan nan nan nan nan nan nan nan nan nan nan nan nan nan nan nan nan nan nan nan nan -0 -0 -0 -0 -0 -0 -0 -0 -0 -0 -0 -0 -0 -0 -0 -0 -15 -15 -9
nan nan nan nan nan nan nan nan nan nan -8 nan -5 -5 -8 -8 -6 -6 -3 -10 -10 -11 -12 nan nan nan nan nan nan nan nan nan nan nan -2 nan nan nan nan nan nan nan nan nan nan nan nan nan nan nan nan nan nan nan nan nan nan nan nan nan nan nan nan nan nan nan nan nan nan nan nan -11 -0 -0 -0 -0 -0 -0 -0 -0 -0 -0 -0 -0 -0 -7
nan nan nan nan nan nan -8 -8 -7 -7 -5 -4 -3 -3 -3 -7 -11 -11 -12 -11 -11 -13 -15 -14 -14 nan nan nan nan nan nan nan nan nan -0 nan nan nan nan nan nan nan nan nan nan nan nan nan nan -3 nan nan nan nan nan nan nan nan nan nan nan nan nan nan nan nan nan nan nan nan nan nan -20 -20 -6 -0 -0 -0 -0 -0 -0 -0 -0 -0 -0 -0
nan nan nan nan nan -5 -2 -1 -2 -2 -3 nan -8 -8 -7 -9 -11 -11 -15 -18 -18 -9 -7 -15 -15 -16 nan nan nan nan nan nan nan nan -0 nan nan nan nan nan nan nan nan nan nan nan nan nan nan -2 -1 nan nan nan nan nan nan nan nan nan nan nan nan nan nan nan nan nan nan nan nan nan -19 -19 -16 -0 -0 -0 -0 -0 -0 -0 -0 -0 -0 -0
nan nan nan nan nan -2 -2 -3 -4 -4 -4 -3 -6 -6 -8 -11 -13 -13 -22 -30 -30 -20 -8 -4 -4 -7 -7 -15 nan nan nan nan nan nan nan nan nan nan nan nan nan nan nan nan nan nan nan nan nan nan nan nan nan nan nan nan nan nan nan nan nan nan nan nan nan nan nan nan nan nan nan nan -15 -15 -11 -0 -0 -0 -0 -0 -0 -0 -0 -0 -0 -0
-3 -0 -2 nan nan nan nan -1 -2 -2 -3 nan -7 -7 -12 -16 -20 -20 -20 -20 -20 -21 -15 -11 -11 -12 -4 -0 nan nan nan nan nan nan nan nan nan nan nan nan nan nan nan nan nan nan nan nan nan nan nan nan nan nan nan nan nan nan nan nan nan nan nan nan nan nan nan nan -8 -8 -6 -11 nan nan nan -17 -22 -22 -17 -18 -18 -0 -0 -0 -0 -0
-1 -1 -1 -0 -0 nan nan -0 -0 -0 nan nan nan nan nan -11 -14 -14 -18 -15 -15 -20 nan -17 -17 nan nan nan -14 -14 nan nan nan nan nan nan nan nan nan nan nan nan nan nan nan nan nan nan nan nan nan nan nan nan nan nan nan nan nan nan nan nan nan nan nan nan nan nan -7 -7 -10 nan nan nan nan nan nan nan nan nan nan -12 -8 -14 -14 -0
nan -0 -0 -0 -0 -0 -0 -0 nan nan nan nan nan nan nan -8 -13 -13 nan -16 -16 -14 -18 -18 -18 nan nan -17 -15 -15 nan nan nan nan nan nan nan nan nan nan nan nan nan nan nan nan nan nan nan nan nan nan nan nan nan nan nan nan nan nan nan nan nan nan nan nan nan nan nan nan nan nan nan nan nan nan nan nan nan nan nan nan -10 -17 -17 nan
-0 -1 -0 nan nan -0 -0 -0 nan nan nan -3 -6 -6 -6 -8 -11 -11 -11 -10 -10 -12 -12 -16 -16 -17 -21 nan nan nan nan nan nan nan nan nan nan nan nan nan nan nan nan nan nan nan nan nan nan nan nan nan nan nan nan nan nan -1 -0 nan nan nan nan nan nan nan nan nan nan nan nan nan -13 -13 nan -19 nan nan nan nan nan nan -11 -18 -18 -15
-0 -0 -0 nan nan -0 -0 -1 -2 -2 -7 -6 -5 -5 -7 -8 -7 -7 -7 -8 -8 -13 -15 -12 -12 -11 -13 nan nan nan nan nan nan nan nan nan nan nan nan nan nan nan nan nan nan nan nan nan nan nan nan nan nan nan nan nan nan nan -2 nan nan nan nan nan nan nan nan nan nan nan -6 nan nan nan nan nan nan nan -24 nan nan -6 -3 -12 -12 -19
-0 -0 -1 -3 -3 -2 -1 -2 -2 -2 -4 -5 -6 -6 -9 -11 -7 -7 -4 -7 -7 -8 -8 -10 -10 -10 -9 -11 nan nan nan nan nan nan nan nan nan nan nan nan nan nan nan nan nan nan nan nan nan nan nan nan nan nan nan nan nan nan nan nan nan nan nan nan nan nan nan nan nan nan nan nan nan nan nan nan nan nan nan -9 -9 -0 -0 -16 -16 nan
-0 -1 -5 -7 -7 -6 -5 -5 -6 -6 -6 -6 -7 -7 -13 nan -8 -8 -5 -8 -8 -7 -10 -15 -15 -15 -12 -9 nan nan nan nan nan nan nan nan nan nan nan nan nan nan nan nan nan nan nan nan nan nan nan nan nan nan nan nan nan nan nan nan nan nan nan nan nan nan nan nan nan nan nan nan nan nan nan nan nan nan -20 -17 -17 -21 -9 -15 -15 nan
-0 -4 -6 -4 -4 -4 -5 -6 -6 -6 -7 -5 -7 -7 -12 nan -6 -6 -7 -9 -9 -7 -12 -14 -14 -11 -10 -13 nan nan nan nan nan nan nan nan -24 -24 -42 nan nan nan nan nan nan nan nan nan nan nan nan nan nan nan nan nan nan nan nan nan nan nan nan nan nan nan nan nan nan nan nan nan nan nan nan nan -16 -16 -18 nan nan nan nan nan nan nan
-3 -4 -5 -5 -5 -5 -2 -4 -6 -6 -7 -6 -7 -7 -11 -15 -14 -14 -8 -9 -9 -10 -17 -13 -13 -7 -6 -9 -14 -14 -18 nan nan nan nan nan nan nan nan nan nan nan nan nan nan nan nan nan nan nan nan nan nan nan nan nan nan nan nan nan nan nan nan nan nan nan nan nan nan nan nan nan nan nan nan nan nan nan nan nan nan nan nan nan nan nan
-3 -3 -4 -4 -4 -4 -5 -5 -6 -6 -6 -5 -7 -7 -11 -14 nan nan -17 -12 -12 -11 -9 -10 -10 -8 -7 -10 -15 -15 -14 nan nan nan nan nan nan nan nan nan nan nan nan nan nan nan nan nan nan nan nan nan nan nan nan nan nan nan nan nan nan nan nan nan nan nan nan nan nan nan nan nan nan nan nan nan nan nan nan nan nan nan nan nan nan nan
-2 -2 -3 -3 -3 -4 -4 -4 -6 -6 -5 -6 nan nan -11 nan nan nan -15 -13 -13 -10 -4 -10 -10 -10 -11 -14 -14 -14 -11 -13 -17 -17 nan nan nan nan nan nan nan nan nan nan nan nan nan nan nan nan nan nan nan nan nan nan nan nan nan nan nan nan nan nan nan nan nan nan nan nan nan nan nan nan nan -12 nan nan nan nan nan nan nan nan nan nan
-2 -2 -2 -3 -3 -5 -6 -5 -6 -6 -5 -6 -10 -10 -11 -8 -0 -0 -9 -15 -15 -13 -9 -7 -7 -9 -8 -11 -13 -13 -15 -14 -17 -17 -22 nan nan nan nan nan nan nan nan nan nan nan nan nan nan nan nan nan nan nan nan nan nan nan nan nan nan nan nan nan nan nan nan nan nan nan nan nan nan nan nan nan nan nan nan nan nan nan nan nan nan nan
-3 -3 -3 -3 -3 -5 -4 -4 -5 -5 -5 nan -7 -7 nan -13 -17 -17 -17 -13 -13 -8 -6 -7 -7 -7 -8 -13 -15 -15 -18 -18 -20 -20 -21 -24 -25 -25 nan nan nan nan nan nan nan nan nan nan nan -21 -12 nan nan nan nan nan nan nan nan nan nan nan nan nan nan nan nan nan nan nan nan nan -17 -17 nan nan nan nan nan nan nan nan nan nan nan nan
-1 -3 -3 -3 -3 -3 -4 -4 -3 -3 nan -3 -4 -4 nan nan -14 -14 -16 -11 -11 -10 -9 -9 -9 -7 -7 -9 -12 -12 -14 -13 -15 -15 -17 -21 -24 -24 -24 -28 -28 -25 -20 nan nan nan nan nan nan nan -16 -3 -15 -15 nan nan nan nan nan nan nan nan nan nan nan nan nan nan nan nan nan nan nan nan nan nan nan nan nan nan nan nan nan nan nan nan
Wind_Speed
2 2 2 2 3 3 3 4 5 4 4 4 4 4 4 4 4 5 6 6 6 6 6 6 6 7 8 10 11 12 12 12 12 12 13 13 14 14 15 15 15 15 15 15 15 16 16 16 16 16 16 16 17 17 17 18 18 18 18 19 19 19 19 20 20 20 20 20 21 21 21 21 21 20 20 21 21 21 22 22 22 23 23 23 24 25
2 2 2 3 3 3 3 4 4 4 4 4 4 4 5 5 5 4 4 5 5 5 5 6 6 7 8 9 10 12 12 12 12 13 13 14 14 15 15 15 16 16 16 16 16 16 16 16 16 16 17 17 17 17 18 18 18 19 19 19 19 20 20 20 20 20 20 21 21 21 21 21 21 21 21 21 22 22 22 23 23 23 24 24 24 25
3 3 2 3 3 3 3 4 4 4 4 4 4 5 6 6 5 5 4 5 4 4 5 5 6 7 7 8 9 11 12 12 13 13 14 14 15 15 16 16 16 16 16 16 16 16 16 16 17 17 17 17 18 18 18 19 19 19 19 19 20 20 20 20 20 20 20 20 20 20 20 21 21 21 21 22 22 22 23 23 23 24 24 24 25 26
3 3 3 2 2 3 3 4 4 4 4 4 5 5 6 5 5 5 5 5 5 5 5 6 6 6 6 6 8 10 12 13 13 14 14 15 15 16 16 16 16 16 16 16 16 16 16 17 17 17 18 18 18 19 19 19 19 20 20 20 20 20 20 20 20 20 20 20 20 20 20 21 21 21 22 22 22 23 23 24 24 24 25 25 26 26
3 3 3 2 2 3 3 3 3 3 3 3 4 4 4 4 4 4 5 5 5 5 5 5 6 6 5 5 7 9 12 13 14 14 15 15 15 15 16 15 15 16 16 16 16 17 17 17 18 18 18 19 19 19 19 20 20 20 20 20 20 20 20 20 20 20 20 20 20 20 21 21 21 22 22 22 23 23 24 24 25 25 25 26 26 27
3 2 2 2 2 2 3 3 3 3 3 3 3 3 3 3 3 4 4 5 5 5 5 5 5 5 6 6 7 10 12 13 14 14 15 15 15 15 15 15 15 15 16 16 17 17 18 18 18 19 19 19 20 20 20 20 20 20 21 21 21 20 20 20 20 20 20 20 20 21 21 21 21 22 22 23 23 24 24 25 25 25 26 26 27 27
3 2 2 2 2 2 2 3 3 3 2 3 3 3 3 3 3 3 4 4 4 4 4 4 5 5 5 6 8 9 10 11 12 13 14 14 14 14 14 15 15 16 16 17 17 18 18 19 19 19 20 20 20 20 20 20 20 21 21 21 21 21 21 21 21 21 21 21 21 21 21 21 22 22 22 23 23 24 24 25 25 26 26 27 27 27
3 3 2 2 2 2 2 3 2 2 2 3 3 4 4 4 3 3 3 3 3 3 4 4 4 4 5 5 7 7 8 8 9 10 11 12 12 13 13 14 15 16 17 18 18 19 19 19 20 20 20 20 20 20 20 20 20 21 21 21 21 21 21 21 21 21 21 21 21 21 21 22 22 23 23 23 24 24 25 25 26 26 27 27 27 27
4 3 3 2 2 3 3 3 2 2 2 3 3 4 4 4 4 3 3 3 3 3 3 4 4 5 5 5 6 6 7 7 7 8 8 8 9 10 11 13 15 16 17 18 19 19 19 19 20 20 20 20 20 20 20 20 20 20 21 21 21 21 21 21 21 21 21 21 21 22 22 22 23 23 23 24 24 24 25 25 26 26 27 27 27 28
4 4 3 3 2 3 3 3 3 2 2 3 3 3 4 4 4 4 4 4 3 3 3 4 5 6 6 5 5 6 7 8 9 10 11 10 10 11 12 12 13 14 17 18 18 19 19 19 19 20 20 20 19 19 19 19 20 20 20 21 21 21 21 21 21 21 21 21 22 22 23 23 23 24 24 24 24 25 25 25 26 26 27 27 27 28
3 3 3 3 3 2 3 3 3 3 3 3 3 3 3 3 4 5 6 6 5 4 4 4 5 5 6 6 6 6 7 7 8 9 10 10 11 12 13 13 13 14 16 17 17 18 18 18 19 19 19 19 19 19 19 19 19 20 20 21 21 21 21 21 21 21 22 22 23 23 23 24 24 24 24 25 25 25 25 26 26 26 26 27 27 28
3 3 2 3 3 3 3 3 3 2 3 3 3 3 3 3 3 4 6 6 6 6 5 5 5 5 6 6 7 7 6 6 6 6 6 6 7 8 9 10 11 12 13 14 15 15 16 17 17 17 17 17 18 18 18 18 19 19 20 20 20 21 21 21 21 22 22 23 23 24 24 24 25 25 25 25 25 26 26 26 26 26 27 27 27 28
3 2 2 3 3 3 3 3 3 3 2 3 3 4 4 4 4 4 4 6 6 6 6 6 6 6 6 6 6 6 6 6 6 5 5 4 5 5 6 7 7 8 8 9 9 10 13 14 15 16 16 16 17 17 18 18 18 19 19 20 20 20 21 22 22 23 23 24 24 24 25 25 25 25 25 26 26 26 26 26 27 27 27 27 27 28
3 3 3 3 3 3 3 3 3 3 3 3 3 4 4 4 4 5 5 6 6 6 7 7 7 7 6 6 5 5 5 5 5 5 5 5 4 4 5 6 7 7 7 7 7 8 10 11 11 11 14 15 15 16 16 17 17 18 19 20 20 21 22 23 23 24 24 25 25 25 25 25 25 26 26 26 26 27 27 27 27 27 27 28 28 28
3 3 3 4 3 3 3 3 3 3 3 3 3 4 4 4 5 5 5 6 6 6 7 7 8 7 5 5 4 4 4 4 5 5 6 5 5 5 5 7 7 7 7 7 7 8 9 9 8 8 10 11 12 13 15 16 17 19 19 20 21 22 23 24 24 24 25 25 25 25 26 26 26 26 26 27 27 27 27 27 27 28 28 28 28 28
3 3 4 4 4 3 3 3 3 3 4 4 4 4 5 5 5 5 5 6 6 6 6 7 7 7 5 4 3 3 4 4 4 5 7 7 6 5 6 7 7 8 7 7 7 7 7 7 7 8 8 11 14 16 17 17 18 20 21 22 23 23 24 24 25 25 25 25 26 26 26 26 26 27 27 27 27 27 27 28 28 28 28 28 29 29
3 3 4 4 4 4 4 3 3 3 4 4 4 4 4 5 5 5 5 6 6 5 5 6 6 6 5 4 3 3 3 4 5 6 7 8 7 6 6 6 7 8 7 7 7 7 7 7 7 7 8 11 14 17 18 19 20 21 22 23 24 24 24 25 25 25 26 26 26 26 27 27 27 27 27 27 27 27 28 28 28 28 29 29 29 29
3 3 4 4 4 4 4 3 3 3 3 4 4 4 4 4 5 5 5 5 5 5 5 5 5 5 5 5 4 3 4 5 6 6 7 8 7 6 6 6 6 7 8 8 7 7 7 6 6 7 9 14 17 19 20 21 21 22 23 23 24 24 25 25 25 26 26 27 27 27 27 27 27 27 27 27 28 28 28 28 29 29 29 29 29 30
4 4 4 4 4 4 4 3 3 3 3 3 4 4 5 5 5 5 5 5 6 6 6 6 5 5 5 6 6 5 5 5 6 7 8 8 8 7 5 6 7 8 8 8 7 7 6 6 8 10 14 17 19 20 21 22 22 22 23 23 24 24 25 26 26 27 27 27 27 27 27 27 27 28 28 28 28 28 28 29 29 29 29 30 30 30
4 4 4 4 4 4 4 3 3 3 3 3 4 4 5 5 5 6 6 5 6 6 6 6 6 6 6 7 7 6 6 6 6 6 7 8 8 7 5 5 6 7 7 7 6 5 6 6 7 10 14 17 19 20 21 21 22 22 23 23 24 25 26 26 27 27 27 28 28 28 28 28 28 28 28 28 28 29 29 29 29 30 30 30 30 30
5 4 4 3 3 3 3 3 3 3 4 4 4 5 5 5 5 6 5 5 6 6 6 6 7 7 6 7 7 7 7 7 7 6 6 7 7 6 5 5 6 7 8 7 6 6 6 7 7 8 11 15 18 20 21 22 22 23 23 24 25 26 26 27 27 28 28 28 28 28 28 28 28 28 28 29 29 29 29 30 30 30 30 30 31 31
4 4 4 4 4 4 3 4 4 4 5 5 4 4 5 5 5 6 6 6 6 6 7 7 7 7 7 8 8 8 7 6 6 6 5 6 7 7 4 4 5 7 8 7 6 6 7 7 7 8 11 16 19 21 22 23 23 24 24 25 26 26 27 27 28 28 28 28 28 28 28 28 29 29 29 29 30 30 30 30 30 30 31 31 31 31
4 4 4 4 4 4 4 4 4 5 5 5 5 5 4 5 5 6 6 6 6 7 7 7 7 8 8 8 8 8 7 7 6 6 5 7 8 7 4 4 6 7 8 7 7 7 7 7 8 9 12 17 20 21 23 23 24 25 25 26 26 26 27 27 27 28 28 28 28 28 29 29 29 30 30 30 30 30 30 31 31 31 31 31 31 31
4 4 4 3 3 3 4 4 4 4 5 5 5 4 4 5 6 6 6 6 7 7 7 7 8 8 8 8 8 7 6 6 5 5 5 6 6 6 5 5 6 8 9 8 7 7 8 8 8 8 9 15 18 21 23 24 24 25 25 26 26 26 26 27 27 27 28 28 29 29 29 30 30 30 31 31 31 31 31 31 31 31 31 31 32 32
4 4 4 4 5 5 6 6 6 6 6 6 5 5 5 6 7 7 7 6 6 6 7 7 8 8 7 7 6 6 5 5 4 4 4 5 6 6 5 5 7 8 9 8 7 7 8 9 9 8 8 12 16 20 22 23 24 24 25 25 25 25 26 26 27 27 28 29 29 30 30 30 31 31 31 31 31 31 31 31 31 31 31 32 32 32
6 6 7 8 10 11 12 12 12 12 12 10 8 6 6 6 6 6 6 6 6 6 7 8 8 7 6 5 5 5 4 4 3 3 4 4 6 6 6 5 6 8 9 8 7 8 9 9 9 9 9 10 13 17 20 22 22 23 23 23 24 24 25 26 27 28 29 29 30 30 30 30 30 30 30 30 31 31 31 31 31 31 31 32 31 31
9 11 12 13 14 15 15 16 16 17 17 15 12 9 7 6 6 6 6 6 6 6 7 7 7 7 6 5 5 5 4 4 4 4 4 5 5 6 5 5 5 7 9 8 8 8 10 10 10 9 9 9 10 13 17 19 20 21 22 23 23 24 26 27 28 28 29 29 30 30 30 30 30 30 30 30 30 30 30 30 31 31 31 29 27 25
11 12 13 14 15 15 16 16 16 16 16 15 15 13 9 6 6 6 6 5 5 6 6 7 7 7 6 5 5 5 5 5 5 4 4 4 5 5 5 5 6 7 8 8 8 8 10 9 9 9 9 8 8 9 12 15 18 19 21 22 24 25 26 27 28 28 28 29 29 29 29 29 29 29 29 30 30 30 30 30 30 29 27 23 18 15
10 12 13 14 14 15 15 15 14 14 14 14 13 11 8 6 5 6 6 5 5 6 6 7 7 7 6 6 6 6 6 5 5 4 4 4 4 5 5 5 6 6 7 7 8 8 8 7 6 6 7 8 8 7 9 12 14 16 18 21 23 24 25 26 26 27 27 28 28 28 28 28 29 29 29 29 29 29 29 30 29 26 20 16 13 12
8 9 10 10 11 11 10 9 10 10 11 12 11 10 7 6 5 6 6 5 6 6 7 7 7 6 6 6 6 5 4 4 4 3 3 4 4 5 5 6 6 6 6 6 7 7 7 5 5 5 5 7 8 7 7 9 10 11 12 16 18 20 22 24 25 25 26 26 27 27 27 28 28 28 28 28 28 28 28 29 27 22 14 12 11 11
6 7 7 7 6 6 6 6 6 7 8 9 9 8 7 5 5 5 5 5 5 6 6 6 6 6 6 5 5 5 4 3 3 4 4 4 4 5 5 6 6 6 5 5 6 7 8 6 5 4 5 7 7 8 8 8 9 9 9 11 12 14 18 21 22 23 23 24 25 26 26 27 27 27 27 28 28 28 28 28 25 20 13 11 11 11
6 6 5 5 5 5 4 5 4 4 5 5 6 6 6 6 5 5 5 5 5 6 6 6 6 6 6 6 5 5 4 4 5 5 5 4 5 5 5 6 6 6 5 4 5 7 8 7 6 6 6 7 7 8 8 9 9 9 9 10 10 11 15 17 19 19 19 21 22 24 25 26 26 27 27 27 27 27 27 28 25 21 14 12 11 12
5 5 5 5 5 5 4 4 4 4 4 4 4 4 5 5 6 6 5 5 5 5 6 6 6 6 6 7 7 6 5 5 6 7 7 5 5 4 4 5 6 6 6 5 6 6 7 7 8 8 8 7 7 7 8 9 9 9 9 9 9 10 13 14 14 14 15 16 18 19 21 23 24 25 25 26 26 26 27 27 26 23 18 14 12 12
5 5 5 5 5 5 4 4 4 4 4 4 4 4 4 5 5 6 6 5 5 5 5 6 6 6 7 7 7 7 6 6 7 8 8 6 5 5 5 6 6 7 7 6 6 6 7 8 9 9 8 8 7 7 8 9 9 9 8 9 9 9 10 11 11 12 13 13 13 14 15 17 18 20 22 23 24 25 26 27 28 27 25 19 15 13
5 5 5 5 5 5 5 5 4 4 4 4 5 5 5 5 5 5 5 5 5 5 5 5 6 6 7 7 7 7 7 6 7 8 8 6 5 5 5 6 6 6 7 7 6 6 6 8 10 10 9 9 8 7 7 7 8 8 8 8 8 9 10 10 10 11 12 12 12 11 11 12 13 15 16 19 22 24 26 28 29 29 29 26 22 17
5 5 5 5 5 5 5 5 5 5 5 4 4 4 5 5 5 5 5 5 5 6 6 6 6 6 6 7 8 8 9 8 8 9 9 7 6 5 5 5 6 7 7 8 7 7 7 9 10 11 11 11 10 8 7 7 7 8 9 9 9 9 9 10 10 11 11 11 11 11 11 11 11 12 14 19 22 25 27 28 29 29 29 28 26 23
4 4 5 4 4 4 5 5 4 4 4 4 4 4 5 5 5 5 5 5 5 6 7 7 8 8 9 8 9 9 9 9 9 10 11 9 7 6 6 6 7 7 8 8 8 8 8 9 10 10 10 10 9 9 8 8 8 9 9 9 9 9 10 10 10 10 11 11 12 12 12 12 12 13 14 19 21 23 24 26 26 26 27 28 27 27
4 5 4 4 4 4 5 5 4 4 4 4 4 5 5 5 5 5 5 6 6 7 7 7 8 9 12 12 12 11 11 12 12 13 13 10 9 8 8 7 8 8 8 8 8 8 9 9 10 10 10 9 9 10 11 10 10 10 10 10 10 10 10 10 10 10 10 11 12 13 13 13 12 12 13 14 15 15 16 17 18 20 23 23 25 26
4 4 4 5 5 5 5 5 5 5 5 5 5 5 5 6 6 7 6 7 7 8 8 8 8 9 10 12 13 13 13 13 13 13 12 11 9 9 9 9 9 9 8 8 8 8 9 9 9 9 10 10 10 11 11 10 11 11 11 11 11 10 10 9 9 10 10 11 12 13 13 12 11 11 12 12 12 12 13 13 14 16 17 16 17 20
4 5 5 5 5 5 5 5 5 5 5 6 6 6 6 6 6 6 7 7 7 8 9 9 9 9 9 10 10 11 12 11 11 11 10 9 8 8 9 9 9 9 8 8 8 8 8 9 10 10 10 10 11 11 11 11 11 12 12 11 10 9 10 10 10 10 10 10 11 12 11 11 11 12 12 12 12 12 12 12 12 13 14 13 13 14
5 5 5 5 5 5 5 5 5 5 5 6 6 6 6 6 6 6 6 6 7 7 7 8 8 8 8 8 9 9 10 10 10 10 9 9 10 10 9 9 9 9 9 8 8 8 9 9 10 10 10 11 12 12 13 12 13 14 14 13 12 11 12 12 12 11 11 10 10 11 12 12 13 13 13 13 13 12 12 12 13 14 14 12 11 11
5 5 5 5 5 5 5 5 6 6 6 6 6 6 6 5 6 6 6 6 6 6 6 6 7 7 8 8 8 8 8 9 9 10 10 10 11 11 10 9 9 8 8 9 9 9 9 10 10 10 10 10 11 12 12 13 13 13 13 13 13 13 13 12 11 10 10 11 11 11 13 13 13 13 14 14 13 13 13 13 15 15 15 13 11 11
5 5 4 5 5 5 6 6 6 6 5 5 5 6 6 5 5 6 7 7 7 7 7 7 7 7 8 8 8 7 6 7 8 9 9 10 10 10 10 10 10 9 8 8 9 9 9 10 10 10 10 10 11 11 13 13 13 13 12 13 13 12 9 9 9 9 10 11 11 11 12 12 12 12 13 13 13 13 13 14 16 17 16 13 12 12
4 4 4 4 5 5 5 5 5 5 5 5 6 6 6 6 6 7 7 7 7 7 7 7 6 7 8 8 8 7 6 6 7 8 9 9 10 10 10 10 10 9 9 8 8 9 9 9 10 10 10 10 10 11 12 12 13 13 12 13 12 12 10 11 11 11 12 11 11 11 11 12 12 12 13 13 13 13 12 13 13 13 14 13 13 13
4 4 4 4 5 5 5 5 5 5 5 6 6 6 6 7 7 7 7 7 7 8 7 7 6 6 7 8 8 7 6 6 6 6 6 8 10 11 10 9 9 9 9 8 8 8 8 9 9 9 9 9 10 11 12 13 13 13 14 13 13 13 13 13 12 12 12 12 12 12 12 12 12 12 13 13 13 13 12 13 13 13 13 13 13 13
4 4 4 4 5 5 5 6 5 5 6 6 6 7 6 7 6 6 7 7 8 8 7 7 6 7 7 8 8 7 7 7 6 6 5 6 7 7 8 8 8 8 8 8 9 9 9 9 9 10 10 10 11 12 12 13 13 13 13 13 13 12 13 12 12 12 12 12 12 12 12 12 12 12 13 13 14 13 13 13 13 14 14 13 13 13
4 4 5 5 5 5 5 5 6 6 6 6 6 7 7 7 6 6 6 7 7 7 7 7 7 7 8 9 8 8 8 8 8 7 6 6 6 6 6 7 8 8 8 8 8 9 9 10 10 10 10 11 11 12 12 12 12 12 13 12 12 12 12 12 11 11 11 11 12 12 12 11 12 12 13 14 14 14 13 13 13 13 14 13 13 13
4 5 5 5 5 5 5 5 5 6 6 6 7 7 7 7 7 7 7 7 7 7 7 7 7 8 9 9 9 9 9 9 9 8 7 7 6 6 6 6 6 7 8 8 9 10 10 10 11 11 11 11 11 12 12 12 12 12 12 12 12 12 12 12 11 11 11 11 11 12 11 10 11 12 13 14 14 14 14 13 13 13 13 13 13 13
4 5 5 5 5 5 5 5 6 6 7 7 7 7 7 8 9 9 8 7 7 7 7 7 8 8 9 9 9 9 9 9 9 8 8 7 6 6 6 6 6 6 7 7 8 8 9 10 11 11 11 11 12 12 13 12 12 11 11 11 11 11 11 11 11 11 10 11 12 12 11 10 11 12 13 14 15 15 15 15 14 13 13 12 12 12
4 4 5 5 5 5 5 6 6 6 7 7 8 7 7 7 7 7 7 7 7 7 7 8 8 9 9 9 9 9 9 9 8 8 8 7 7 6 6 6 6 6 7 6 6 6 6 7 8 9 11 12 12 12 12 12 12 11 11 10 10 10 11 11 11 11 11 12 12 12 12 12 11 11 11 13 14 16 16 15 14 14 12 12 12 12
4 4 5 5 5 5 5 6 6 7 7 8 8 8 8 7 7 7 7 7 7 7 7 8 8 9 9 10 10 9 9 9 9 9 9 7 7 7 7 7 6 6 7 6 6 6 6 5 6 6 7 11 12 12 9 10 10 10 10 10 10 10 10 10 11 11 12 12 12 12 12 12 12 11 11 12 13 14 15 15 15 14 13 12 12 13
Wind_Direction
298 300 301 299 297 295 294 297 298 299 301 304 307 308 307 303 297 292 292 293 292 291 291 291 292 292 292 293 293 293 293 294 294 296 297 298 300 302 303 304 304 304 303 303 302 301 301 300 300 300 301 301 302 303 304 304 304 304 305 304 305 305 305 305 305 305 305 305 306 306 306 307 307 307 306 305 303 302 301 301 300 300 300 300 300 300
306 304 298 298 297 297 296 301 302 304 307 309 309 307 304 302 300 299 297 293 291 290 290 289 289 289 289 290 291 292 292 292 292 293 294 296 297 299 300 300 300 300 300 299 299 298 298 298 298 299 299 300 301 302 302 303 303 303 303 303 303 303 303 303 303 304 304 304 304 305 305 305 305 304 303 302 301 301 301 300 300 300 300 300 300 299
311 305 301 303 304 302 300 304 306 308 309 307 304 302 302 303 303 303 301 298 294 289 287 286 286 287 288 288 289 290 290 290 290 291 293 294 295 296 297 297 297 297 297 296 296 296 296 297 297 298 299 299 300 301 301 301 301 301 301 301 301 301 301 301 302 302 302 303 303 303 303 303 303 302 302 301 301 301 301 300 300 300 300 299 299 299
303 301 305 309 307 302 298 303 305 307 305 301 299 300 303 305 305 303 300 298 295 291 288 286 286 287 287 286 286 287 287 288 289 290 292 293 294 295 295 295 295 295 295 295 295 296 296 297 297 298 298 299 299 300 300 299 299 299 299 299 299 299 299 300 300 301 301 301 301 302 302 302 302 301 301 301 301 300 300 300 299 299 299 299 298 298
298 301 309 311 305 300 299 301 302 301 298 297 300 304 308 306 302 299 296 294 293 291 290 289 288 287 285 283 283 284 286 288 289 291 292 293 293 294 294 294 294 295 295 295 296 296 297 297 297 298 298 298 298 298 297 297 297 296 296 297 297 298 298 299 299 299 300 300 300 301 301 301 301 301 301 301 300 300 300 299 299 298 298 298 298 297
299 303 307 304 302 300 303 302 302 303 302 304 308 310 309 301 295 292 290 291 291 291 290 288 286 284 283 281 282 285 287 289 291 292 293 293 293 294 294 294 295 295 296 297 297 297 297 297 297 296 296 295 295 295 294 294 294 294 295 295 296 297 297 298 298 298 299 299 300 300 300 301 301 300 300 300 300 299 299 299 298 298 298 297 297 297
297 299 301 298 298 300 301 300 304 309 317 317 315 312 305 297 290 286 284 286 288 289 289 286 284 282 282 283 286 289 291 293 294 294 294 294 294 294 295 296 296 297 298 298 297 297 296 296 295 294 293 293 292 292 291 291 292 292 293 294 295 296 296 296 297 297 297 298 299 299 299 299 299 299 299 299 299 299 299 298 298 298 297 297 296 296
294 297 299 300 302 303 300 298 305 316 326 320 315 310 305 300 294 288 283 282 284 288 291 291 290 289 289 292 295 297 297 297 297 296 295 295 295 296 296 297 298 298 298 298 297 296 295 293 292 291 290 290 289 289 289 290 290 291 292 293 294 294 295 295 295 296 296 297 297 298 298 298 298 298 298 298 298 298 298 298 298 297 297 296 296 295
293 299 301 303 306 305 302 300 307 319 326 315 308 305 304 303 302 300 299 298 298 299 302 303 302 301 301 303 304 304 301 299 297 296 295 295 295 297 298 298 298 298 297 296 295 294 293 292 291 289 289 288 288 288 288 289 289 290 291 292 292 293 293 293 294 294 295 295 296 297 297 297 297 297 297 297 297 297 297 297 296 296 296 295 295 295
294 299 303 304 305 305 302 303 307 313 314 301 294 291 294 303 311 316 318 317 314 312 309 309 309 309 310 310 307 304 301 298 296 295 295 297 298 298 299 299 298 297 295 295 294 293 292 291 290 289 288 288 288 288 288 288 289 289 290 290 290 291 291 292 292 293 294 295 295 296 296 296 296 296 296 296 296 296 296 295 295 295 294 294 294 293
301 303 305 307 307 305 302 301 303 304 300 291 286 284 287 310 322 326 322 318 316 315 313 313 314 314 313 311 307 304 301 298 297 296 296 298 300 300 300 299 297 296 296 296 295 294 293 292 291 290 289 289 289 289 289 288 288 288 288 288 289 289 289 291 292 293 294 295 295 295 295 295 295 295 295 295 295 294 294 294 293 293 293 293 292 292
307 310 310 310 309 305 301 298 296 296 297 299 303 309 318 334 336 329 319 316 315 316 317 315 314 312 310 307 305 303 301 298 298 298 299 300 301 301 301 301 300 299 298 298 297 296 295 294 293 292 291 291 290 289 288 287 286 286 286 286 287 288 289 291 292 294 294 295 295 295 294 294 294 294 293 293 293 293 293 292 292 292 292 291 291 291
308 309 309 306 303 301 299 301 303 306 310 318 325 328 329 335 333 324 313 311 313 316 319 316 313 308 304 300 299 299 299 299 299 300 301 302 304 304 305 304 303 302 301 300 298 297 296 295 293 292 292 291 289 288 287 286 285 285 285 286 288 290 291 293 294 294 294 294 294 294 293 293 293 293 292 292 292 292 291 291 291 291 291 290 290 290
307 307 304 301 298 297 299 304 309 313 319 326 330 329 326 325 323 318 312 311 313 317 318 313 310 306 302 298 295 295 298 300 301 302 302 302 304 307 308 305 303 301 301 299 296 295 295 295 294 292 291 289 288 287 285 285 285 286 287 288 290 291 292 293 294 294 294 293 293 293 293 292 292 292 291 291 291 290 290 290 290 290 290 290 290 289
304 303 299 296 295 295 300 306 310 312 317 323 325 325 321 319 318 318 316 315 316 317 315 309 306 303 300 298 297 297 300 302 304 305 304 303 305 308 309 304 301 298 297 295 292 292 293 292 290 288 287 285 285 285 286 287 288 288 289 290 291 291 292 292 293 293 292 292 292 292 292 291 291 291 290 290 290 289 289 289 289 289 289 289 289 289
296 296 293 293 293 294 298 303 306 310 314 320 322 322 319 317 318 319 318 316 316 315 313 311 309 306 300 298 298 300 306 310 310 309 307 303 304 307 308 302 298 295 293 291 290 290 290 287 285 283 283 285 286 288 289 290 290 290 290 290 290 291 291 291 292 292 292 292 292 292 291 291 290 290 289 289 289 289 289 289 289 288 288 288 288 288
290 290 289 290 290 292 295 299 304 309 313 315 315 313 312 314 316 317 315 313 312 311 309 310 309 307 305 305 305 311 325 323 316 310 305 301 300 302 303 298 294 291 290 288 287 287 286 284 282 282 284 288 290 291 291 291 290 289 289 289 289 289 290 291 291 292 292 292 291 291 290 290 289 289 289 289 288 288 288 288 288 288 288 288 288 288
283 283 283 284 287 292 299 304 308 310 310 309 309 310 311 313 314 313 309 307 305 304 302 300 298 297 300 301 306 318 338 329 318 308 302 297 296 297 298 292 288 286 285 283 282 281 282 282 284 286 289 291 292 291 290 289 288 288 287 287 288 289 290 291 291 292 292 291 291 290 290 289 289 289 289 289 288 288 288 288 287 287 287 287 288 288
276 276 279 283 287 292 296 300 303 305 305 309 314 316 314 312 310 306 302 299 297 295 295 294 291 289 291 293 300 313 330 323 313 305 299 295 294 295 294 287 283 281 280 280 281 283 284 286 289 290 291 291 290 289 288 287 287 286 286 287 288 289 290 291 291 291 291 291 290 290 290 289 289 289 289 288 288 288 288 288 287 287 288 288 288 288
273 273 275 281 286 288 290 291 294 301 311 321 322 318 311 307 303 298 294 292 290 289 289 288 288 288 290 292 297 306 320 317 309 300 294 291 291 291 289 283 281 281 281 282 285 289 291 291 290 289 289 289 288 288 287 287 287 287 287 288 288 289 290 290 290 290 290 290 290 290 290 289 289 289 289 289 289 288 288 288 288 288 288 288 288 288
273 274 275 280 285 288 289 295 305 317 328 329 321 311 302 299 295 292 290 291 290 290 289 286 287 288 293 294 297 303 312 309 303 296 291 288 286 286 285 283 284 285 287 289 292 294 294 291 289 288 288 288 289 288 288 288 288 288 288 288 288 289 289 289 289 289 290 290 290 290 290 290 290 290 290 290 290 290 290 289 289 289 289 289 288 288
271 274 277 281 284 288 293 304 315 322 324 317 306 296 291 292 293 293 294 295 294 293 291 288 288 289 291 291 293 296 301 295 290 287 287 286 284 284 286 288 290 291 292 293 295 295 293 290 288 287 288 290 290 290 290 290 289 289 288 288 288 287 287 287 288 288 288 288 289 289 290 290 291 291 291 291 291 291 291 290 290 290 290 290 289 289
268 274 279 281 285 289 296 303 307 307 303 294 287 284 287 292 294 295 297 296 293 290 287 286 286 287 286 286 287 287 284 277 273 274 278 281 283 287 294 299 298 295 292 294 296 296 294 291 289 289 290 291 291 291 291 290 289 288 288 287 287 287 287 286 286 287 287 288 288 289 290 291 292 292 292 292 292 292 291 291 291 291 291 291 291 291
269 273 278 281 282 283 284 285 286 286 287 286 286 288 290 289 288 288 287 287 287 287 287 287 286 284 281 280 280 279 275 271 269 271 276 281 286 293 303 305 299 294 291 294 296 297 295 292 290 290 291 291 291 290 290 289 288 288 287 287 287 286 286 286 286 286 287 288 289 290 291 291 291 292 292 292 292 292 292 292 292 292 293 292 292 292
271 273 276 277 277 277 278 281 284 286 288 290 291 291 289 287 285 284 283 283 284 284 285 285 283 282 282 284 284 282 281 280 283 286 288 288 289 293 299 301 297 293 292 294 295 295 294 292 291 291 291 290 290 290 289 289 288 287 287 286 286 286 286 287 287 288 288 289 290 290 291 291 291 291 291 291 291 291 292 292 292 292 292 292 292 292
275 276 278 279 280 281 282 283 285 286 286 287 288 288 288 288 286 285 282 280 280 281 282 281 281 282 285 287 287 287 290 294 297 298 294 291 290 291 294 296 293 292 292 294 296 297 295 293 293 293 292 290 289 289 288 288 287 287 287 288 288 289 289 289 289 289 289 290 290 290 290 290 290 290 290 291 291 291 291 292 292 292 292 292 292 292
280 281 282 281 281 281 281 281 282 282 283 284 284 284 284 284 283 280 276 277 278 279 280 282 284 286 288 287 287 290 299 302 301 296 290 286 286 287 291 294 295 295 295 296 297 297 295 294 293 293 291 288 286 286 286 288 289 291 291 292 292 291 291 290 289 289 289 289 289 290 290 290 290 291 291 292 292 292 292 292 292 293 293 293 292 291
281 281 280 279 278 277 277 277 278 279 280 281 281 280 278 276 274 273 274 277 279 280 279 281 285 289 292 292 292 295 299 297 291 286 282 280 280 284 293 300 301 300 300 299 298 295 292 290 289 288 286 284 283 284 288 293 295 296 296 294 293 291 290 289 288 288 288 289 289 290 290 291 291 292 292 293 293 294 294 294 294 294 294 294 292 289
278 276 275 274 273 273 274 276 277 279 280 279 278 275 270 264 263 266 272 277 279 279 278 279 282 287 291 292 293 293 291 286 283 284 290 288 286 288 300 304 305 305 307 304 300 295 287 281 280 281 283 288 292 296 299 301 300 298 295 292 290 289 288 287 287 288 288 289 290 290 291 292 293 293 294 295 295 296 296 296 296 296 295 293 290 286
279 278 276 276 277 278 280 281 281 281 280 277 273 268 260 254 254 259 266 271 273 273 275 278 280 284 289 293 294 292 284 282 291 307 323 307 296 294 303 303 305 308 314 310 305 299 289 281 279 283 291 299 302 304 303 301 297 293 290 289 288 287 287 287 288 289 289 290 291 292 293 294 295 296 296 297 297 297 297 298 298 297 294 290 287 284
284 285 285 286 287 287 287 284 281 278 276 272 267 261 253 248 248 252 258 261 265 268 273 276 279 282 286 291 292 291 287 292 311 326 330 307 294 293 302 302 303 305 311 308 305 302 300 297 294 296 302 304 303 301 298 295 292 289 286 286 286 286 287 289 290 291 292 293 294 295 295 296 297 298 298 298 298 298 298 298 297 296 293 289 286 284
286 288 289 291 291 289 284 279 274 270 266 263 258 253 249 247 246 247 250 254 259 263 268 272 275 277 278 278 278 280 284 291 304 311 309 296 290 292 299 297 297 298 298 291 290 293 298 301 304 306 306 301 298 295 292 291 289 288 287 287 286 287 290 292 293 294 295 295 296 297 298 298 299 299 299 298 298 298 298 298 297 296 293 290 286 284
287 288 290 289 288 284 279 274 270 266 263 261 258 255 253 250 249 248 248 250 253 258 263 268 272 274 274 272 271 271 276 282 291 295 294 289 287 290 293 293 293 294 293 285 279 278 282 291 299 303 302 298 295 293 292 291 289 287 287 288 288 289 293 295 296 297 297 297 298 298 299 299 299 299 298 298 298 298 298 297 297 296 294 291 287 285
290 290 290 289 287 285 282 279 276 274 272 270 266 262 258 254 252 251 250 251 252 254 257 262 267 271 274 274 273 272 273 277 283 287 289 287 286 287 290 289 290 291 292 288 284 281 278 284 291 298 299 297 295 293 293 291 289 286 285 287 290 293 296 298 299 298 298 298 298 298 298 298 297 298 298 298 298 298 297 297 297 296 295 292 289 287
292 292 291 290 288 286 284 283 280 278 276 272 269 266 263 261 259 257 256 256 256 256 256 257 259 263 268 272 274 275 276 278 282 285 287 284 283 284 286 284 286 288 290 289 289 289 286 287 290 293 297 298 296 293 291 290 289 289 287 289 291 294 297 299 299 299 298 297 296 295 295 295 296 296 297 297 297 297 297 297 297 296 295 293 291 289
291 291 289 287 286 285 285 286 285 284 282 280 277 275 274 271 270 268 267 266 265 265 263 260 258 257 257 261 266 270 274 277 280 282 281 278 277 278 280 280 282 286 288 289 289 289 289 290 291 292 294 296 296 296 294 293 293 293 293 293 293 293 294 295 296 296 296 295 294 294 294 295 296 296 296 297 297 297 297 297 297 296 295 294 292 289
286 285 285 286 288 290 292 292 291 289 286 283 282 280 280 280 279 278 277 274 272 270 269 265 262 258 254 254 256 260 266 271 274 274 274 272 272 273 275 277 279 281 283 286 287 289 289 290 292 292 290 290 293 297 301 302 301 297 295 296 295 295 293 293 292 292 292 292 293 294 296 296 296 296 295 296 297 297 297 297 296 295 295 293 291 289
283 285 289 292 294 295 294 292 290 287 285 285 285 285 285 284 284 283 281 277 273 270 268 266 263 261 257 256 256 257 261 265 267 269 269 269 269 270 272 275 276 275 274 277 281 285 287 288 291 293 292 289 289 292 298 301 302 300 297 296 295 294 293 292 292 291 291 292 294 294 295 295 295 295 294 295 296 296 296 295 295 294 294 293 291 289
290 293 295 295 295 293 292 291 290 290 291 292 292 291 290 288 285 283 279 277 273 269 266 265 264 263 259 258 257 258 260 262 263 264 264 264 264 264 266 270 272 272 270 269 272 275 278 281 284 287 291 292 293 293 294 295 296 298 300 299 296 292 291 292 293 294 294 294 294 294 294 293 293 293 293 293 294 294 294 293 293 293 293 293 291 290
295 294 293 293 292 292 292 293 294 296 297 295 294 292 291 289 286 283 279 276 273 271 268 266 265 264 263 261 260 260 260 260 260 260 260 258 256 256 258 263 267 270 270 267 266 267 269 273 275 278 282 286 290 293 295 294 295 297 301 301 299 298 297 298 297 295 293 291 291 292 293 293 293 293 292 292 292 291 291 291 291 291 291 291 291 291
292 290 290 292 294 294 294 296 296 297 296 294 293 292 290 289 287 285 283 280 278 276 275 272 270 268 266 263 261 261 260 261 260 259 257 254 251 250 252 256 261 265 268 267 265 264 265 269 273 276 278 281 284 287 288 290 293 296 298 297 295 295 298 297 296 294 292 291 290 292 294 295 295 294 292 291 290 288 288 288 288 288 289 287 286 286
290 290 293 296 298 299 299 298 297 295 293 292 290 290 289 289 288 288 287 286 285 283 281 279 277 275 273 270 267 263 261 261 259 258 257 253 250 249 250 252 256 260 264 265 265 264 263 266 270 273 276 279 283 286 287 288 290 292 292 292 293 295 295 292 291 292 294 294 294 294 295 294 294 293 292 291 289 288 287 286 286 286 287 285 283 281
290 292 295 297 299 299 299 297 296 294 294 291 289 288 289 289 287 287 287 286 286 285 284 281 280 280 280 280 278 273 267 261 259 259 259 256 253 251 250 251 252 255 258 263 265 265 264 264 267 271 275 277 279 281 285 289 291 291 289 289 293 296 296 295 295 295 294 293 293 293 292 291 290 290 290 289 288 288 287 286 285 285 285 286 284 282
291 295 298 299 298 297 296 295 295 295 295 293 292 290 289 287 285 284 284 283 284 285 285 284 282 281 281 282 282 281 277 270 263 260 259 259 257 255 255 254 253 252 252 257 264 268 270 268 267 269 273 276 278 279 282 285 288 289 289 289 288 287 285 290 295 297 295 292 291 290 289 289 289 289 289 288 288 288 288 288 287 287 286 285 283 281
297 299 299 298 297 297 296 297 298 298 297 294 292 290 288 286 284 283 281 283 284 285 286 287 286 285 283 284 285 286 284 281 275 269 265 263 262 262 261 259 258 256 253 253 257 262 269 272 274 275 275 275 275 277 280 283 286 286 286 287 285 283 279 283 288 291 291 290 289 289 289 289 290 290 290 289 289 289 289 289 289 288 286 284 281 279
297 297 296 297 297 298 299 300 299 298 295 291 289 288 287 286 284 282 280 281 283 284 284 284 285 285 286 288 290 290 289 288 285 281 277 272 269 265 263 262 261 259 258 255 254 255 257 265 272 277 280 278 275 273 274 278 282 284 285 286 285 284 283 284 285 286 286 287 288 289 290 290 291 290 290 291 291 291 290 289 288 286 286 284 281 278
296 295 296 298 299 299 299 299 298 296 292 290 289 288 288 288 287 285 283 282 282 283 284 284 283 282 284 288 290 293 293 293 292 290 288 284 279 274 270 266 262 260 259 259 257 256 255 259 264 269 275 277 277 276 274 275 277 279 282 284 285 285 285 285 285 285 285 286 287 289 292 294 293 292 291 292 292 291 290 288 285 284 283 282 280 278
294 295 296 297 297 297 296 296 295 293 291 290 289 289 289 290 291 291 289 287 286 286 287 286 285 284 285 287 290 291 292 293 294 295 294 292 289 284 278 275 271 266 263 262 261 260 259 258 258 260 263 268 272 275 277 277 276 277 279 282 283 284 284 284 286 287 287 287 288 290 294 295 295 294 295 294 292 290 289 287 285 283 280 280 279 279
291 292 294 295 294 294 294 294 294 293 292 291 291 291 292 292 293 294 292 290 289 288 288 287 287 287 288 290 291 292 293 293 294 295 297 296 295 293 289 285 281 278 275 271 268 266 264 260 255 252 251 255 262 268 273 275 276 277 279 280 281 283 284 286 289 291 293 293 293 292 292 291 291 292 293 293 291 290 289 288 286 283 281 280 280 280
290 291 292 293 293 293 294 295 295 294 293 293 293 294 294 295 294 293 291 290 289 288 287 287 288 289 290 292 294 296 296 296 296 296 297 298 298 297 294 293 291 289 287 283 280 277 275 269 258 248 243 245 251 260 269 274 277 279 280 281 283 286 288 291 293 295 297 296 296 295 293 291 289 289 288 288 288 288 288 288 286 285 284 284 284 283
291 290 291 291 292 293 294 295 294 294 293 293 294 295 295 296 295 295 293 292 291 291 289 290 290 291 292 294 295 297 297 297 297 297 298 299 299 298 296 296 296 296 296 295 293 292 289 288 281 267 251 248 251 257 268 277 283 287 288 288 290 291 292 293 295 296 297 297 296 295 293 291 290 287 285 285 286 287 288 289 289 288 289 289 289 287